Hourly Weather Alice Springs

Today, 2 March, Tuesday

Time Temperature Precipitation Wind Pressure Humidity
00:00 +29°C° 0 mm 3 mps 707 mmHg 18%
01:00 +29°C° 0 mm 3 mps 707 mmHg 19%
02:00 +28°C° 0 mm 3 mps 706 mmHg 20%
03:00 +27°C° 0 mm 2 mps 706 mmHg 20%
04:00 +27°C° 0 mm 2 mps 706 mmHg 21%
05:00 +27°C° 0 mm 2 mps 706 mmHg 22%
06:00 +27°C° 0 mm 2 mps 706 mmHg 23%
07:00 +29°C° 0 mm 4 mps 707 mmHg 22%
08:00 +33°C° 0 mm 5 mps 708 mmHg 21%
09:00 +36°C° 0 mm 6 mps 708 mmHg 19%
10:00 +38°C° 0 mm 6 mps 708 mmHg 17%
11:00 +39°C° 0 mm 5 mps 707 mmHg 15%
12:00 +40°C° 0 mm 5 mps 707 mmHg 13%
13:00 +41°C° 0 mm 5 mps 706 mmHg 13%
14:00 +42°C° 0 mm 5 mps 706 mmHg 12%
15:00 +42°C° 0 mm 5 mps 706 mmHg 12%
16:00 +41°C° 0 mm 5 mps 706 mmHg 12%
17:00 +41°C° 0 mm 6 mps 706 mmHg 13%
18:00 +40°C° 0 mm 6 mps 705 mmHg 13%
19:00 +37°C° 0 mm 5 mps 706 mmHg 15%
20:00 +36°C° 0 mm 5 mps 706 mmHg 16%
21:00 +34°C° 0 mm 4 mps 707 mmHg 17%
22:00 +34°C° 0 mm 4 mps 707 mmHg 18%
23:00 +33°C° 0 mm 4 mps 707 mmHg 19%

Tomorrow, 3 March, Wednesday

Time Temperature Precipitation Wind Pressure Humidity
00:00 +31°C° 0 mm 3 mps 707 mmHg 20%
01:00 +31°C° 0 mm 3 mps 706 mmHg 24%
02:00 +30°C° 0 mm 3 mps 706 mmHg 27%
03:00 +30°C° 0 mm 3 mps 706 mmHg 31%
04:00 +29°C° 0 mm 3 mps 707 mmHg 34%
05:00 +29°C° 0 mm 3 mps 707 mmHg 36%
06:00 +28°C° 0 mm 3 mps 707 mmHg 39%
07:00 +32°C° 0 mm 4 mps 708 mmHg 33%
08:00 +34°C° 0 mm 6 mps 708 mmHg 26%
09:00 +38°C° 0 mm 8 mps 709 mmHg 20%
10:00 +39°C° 0 mm 7 mps 709 mmHg 18%
11:00 +40°C° 0 mm 6 mps 709 mmHg 17%
12:00 +41°C° 0 mm 4 mps 708 mmHg 15%
13:00 +41°C° 0 mm 4 mps 708 mmHg 14%
14:00 +42°C° 0 mm 4 mps 707 mmHg 14%
15:00 +42°C° 0 mm 4 mps 707 mmHg 13%
16:00 +42°C° 0 mm 5 mps 707 mmHg 13%
17:00 +41°C° 0 mm 5 mps 707 mmHg 13%
18:00 +40°C° 0 mm 5 mps 707 mmHg 13%
19:00 +39°C° 0 mm 5 mps 707 mmHg 15%
20:00 +36°C° 0 mm 5 mps 707 mmHg 16%
21:00 +35°C° 0 mm 5 mps 708 mmHg 18%
22:00 +34°C° 0 mm 4 mps 708 mmHg 18%
23:00 +33°C° 0 mm 4 mps 708 mmHg 19%

Day after tomorrow, 4 March, Thursday

Time Temperature Precipitation Wind Pressure Humidity
00:00 +32°C° 0 mm 4 mps 707 mmHg 20%
01:00 +32°C° 0 mm 4 mps 707 mmHg 21%
02:00 +30°C° 0 mm 4 mps 707 mmHg 22%
03:00 +30°C° 0 mm 4 mps 707 mmHg 22%
04:00 +29°C° 0 mm 4 mps 707 mmHg 24%
05:00 +28°C° 0 mm 4 mps 708 mmHg 25%
06:00 +28°C° 0 mm 4 mps 708 mmHg 26%
07:00 +30°C° 0 mm 4 mps 709 mmHg 24%
08:00 +33°C° 0 mm 5 mps 709 mmHg 22%
09:00 +34°C° 0 mm 6 mps 710 mmHg 20%
10:00 +36°C° 0 mm 5 mps 710 mmHg 18%
11:00 +37°C° 0 mm 5 mps 709 mmHg 17%
12:00 +38°C° 0 mm 4 mps 709 mmHg 16%
13:00 +40°C° 0 mm 4 mps 708 mmHg 15%
14:00 +40°C° 0 mm 4 mps 708 mmHg 15%
15:00 +41°C° 0 mm 5 mps 707 mmHg 14%
16:00 +40°C° 0 mm 5 mps 707 mmHg 15%
17:00 +39°C° 0 mm 6 mps 707 mmHg 16%
18:00 +39°C° 0 mm 6 mps 707 mmHg 17%
19:00 +36°C° 0 mm 6 mps 707 mmHg 19%
20:00 +34°C° 0 mm 6 mps 708 mmHg 20%
21:00 +33°C° 0 mm 6 mps 708 mmHg 22%
22:00 +32°C° 0 mm 6 mps 708 mmHg 22%
23:00 +30°C° 0 mm 7 mps 708 mmHg 23%

5 March, Friday

Time Temperature Precipitation Wind Pressure Humidity
00:00 +29°C° 0 mm 7 mps 708 mmHg 23%
01:00 +28°C° 0 mm 7 mps 707 mmHg 24%
02:00 +27°C° 0 mm 6 mps 707 mmHg 24%
03:00 +27°C° 0 mm 5 mps 707 mmHg 24%
04:00 +26°C° 0 mm 5 mps 707 mmHg 25%
05:00 +25°C° 0 mm 4 mps 707 mmHg 25%
06:00 +25°C° 0 mm 3 mps 708 mmHg 25%
07:00 +26°C° 0 mm 4 mps 708 mmHg 21%
08:00 +28°C° 0 mm 5 mps 709 mmHg 18%
09:00 +30°C° 0 mm 5 mps 709 mmHg 14%
10:00 +33°C° 0 mm 5 mps 709 mmHg 14%
11:00 +34°C° 0 mm 5 mps 709 mmHg 13%
12:00 +36°C° 0 mm 5 mps 708 mmHg 13%
13:00 +36°C° 0 mm 6 mps 708 mmHg 13%
14:00 +38°C° 0 mm 6 mps 707 mmHg 13%
15:00 +39°C° 0 mm 7 mps 707 mmHg 13%
16:00 +38°C° 0 mm 7 mps 706 mmHg 13%
17:00 +36°C° 0 mm 7 mps 706 mmHg 13%
18:00 +35°C° 0 mm 7 mps 706 mmHg 13%
19:00 +33°C° 0 mm 6 mps 707 mmHg 13%
20:00 +32°C° 0 mm 5 mps 707 mmHg 14%
21:00 +29°C° 0 mm 4 mps 708 mmHg 14%
22:00 +28°C° 0 mm 4 mps 707 mmHg 14%
23:00 +28°C° 0 mm 4 mps 707 mmHg 14%

6 March, Saturday

Time Temperature Precipitation Wind Pressure Humidity
00:00 +27°C° 0 mm 4 mps 707 mmHg 15%
01:00 +26°C° 0 mm 4 mps 706 mmHg 15%
02:00 +25°C° 0 mm 4 mps 706 mmHg 16%
03:00 +25°C° 0 mm 3 mps 706 mmHg 17%
04:00 +24°C° 0 mm 3 mps 706 mmHg 18%
05:00 +24°C° 0 mm 3 mps 706 mmHg 19%
06:00 +22°C° 0 mm 3 mps 706 mmHg 20%
07:00 +26°C° 0 mm 3 mps 707 mmHg 18%
08:00 +28°C° 0 mm 4 mps 707 mmHg 16%
09:00 +32°C° 0 mm 5 mps 708 mmHg 14%
10:00 +33°C° 0 mm 5 mps 707 mmHg 13%
11:00 +34°C° 0 mm 5 mps 707 mmHg 13%
12:00 +36°C° 0 mm 4 mps 707 mmHg 12%
13:00 +37°C° 0 mm 4 mps 706 mmHg 12%
14:00 +37°C° 0 mm 4 mps 706 mmHg 12%
15:00 +39°C° 0 mm 5 mps 705 mmHg 12%
16:00 +37°C° 0 mm 5 mps 705 mmHg 13%
17:00 +37°C° 0 mm 5 mps 705 mmHg 14%
18:00 +36°C° 0 mm 5 mps 705 mmHg 14%
19:00 +34°C° 0 mm 5 mps 706 mmHg 15%
20:00 +33°C° 0 mm 5 mps 706 mmHg 16%
21:00 +32°C° 0 mm 4 mps 706 mmHg 17%
22:00 +30°C° 0 mm 4 mps 706 mmHg 18%
23:00 +29°C° 0 mm 4 mps 706 mmHg 18%

7 March, Sunday

Time Temperature Precipitation Wind Pressure Humidity
00:00 +29°C° 0 mm 4 mps 706 mmHg 18%
01:00 +28°C° 0 mm 4 mps 705 mmHg 19%
02:00 +27°C° 0 mm 3 mps 705 mmHg 19%
03:00 +27°C° 0 mm 3 mps 705 mmHg 20%
04:00 +26°C° 0 mm 3 mps 705 mmHg 20%
05:00 +26°C° 0 mm 3 mps 705 mmHg 21%
06:00 +25°C° 0 mm 2 mps 705 mmHg 21%
07:00 +28°C° 0 mm 3 mps 706 mmHg 19%
08:00 +32°C° 0 mm 4 mps 706 mmHg 16%
09:00 +34°C° 0 mm 5 mps 707 mmHg 13%
10:00 +36°C° 0 mm 4 mps 707 mmHg 13%
11:00 +37°C° 0 mm 3 mps 706 mmHg 13%
12:00 +38°C° 0 mm 2 mps 706 mmHg 13%
13:00 +38°C° 0 mm 3 mps 705 mmHg 13%
14:00 +38°C° 0 mm 4 mps 705 mmHg 14%
15:00 +39°C° 0 mm 5 mps 704 mmHg 15%
16:00 +37°C° 0 mm 4 mps 704 mmHg 16%
17:00 +37°C° 0 mm 4 mps 704 mmHg 17%
18:00 +36°C° 0 mm 3 mps 704 mmHg 19%
19:00 +35°C° 0 mm 3 mps 704 mmHg 21%
20:00 +33°C° 0 mm 3 mps 705 mmHg 23%
21:00 +31°C° 0 mm 2 mps 705 mmHg 25%
22:00 +30°C° 0 mm 2 mps 705 mmHg 25%
23:00 +29°C° 0 mm 2 mps 705 mmHg 25%
Show more